Location: Albany
(35.0000°S, 118.0000°E)
Time: 00:51:37
(UTC-05:00)

Daily predictions for brighter satellites

Satellite Brightness Start Highest point End
(mag) Time Altitude Azimuth Time Altitude Azimuth Time Altitude Azimuth
Cosmos 1048 Rocket 4.2 06:44:46 10° S 06:49:53 56° ESE 06:55:01 10° NNE
BREEZE-M R/B 4.1 06:46:56 10° SW 06:50:47 47° SE 07:01:55 10° ENE
Helios 1A 4.1 06:48:13 10° SE 06:51:48 26° E 06:55:21 10° NNE
COS B Rocket 3.7 06:49:56 10° SSW 06:52:24 42° W 06:55:00 10° NNW
Cosmos 1892 3.2 06:51:41 10° SSW 06:55:35 64° W 06:59:23 10° N
ATLAS 2AS CENTAUR R/B 3.9 06:49:55 10° SW 06:55:36 37° WNW 07:01:42 10° N
ASTRO E2 3.1 06:52:19 10° WNW 06:56:14 47° N 07:00:07 10° E
SL-27 R/B 2.6 06:56:45 10° S 07:00:25 67° ESE 07:04:04 10° NNE
USA 234 3.5 06:54:39 10° NE 07:01:11 73° NW 07:07:46 10° SW
Cosmos 1242 Rocket 2.9 06:58:36 10° NNE 07:02:02 44° E 07:05:35 10° SSE
Resurs 01 Rocket 1.6 07:01:57 10° SSE 07:06:29 72° ENE 07:10:56 10° N
Resurs 1-3 3.6 07:05:48 10° SSE 07:10:14 65° ENE 07:14:37 10° N
CZ-2D R/B 3.5 07:06:58 10° SSE 07:10:51 50° E 07:14:40 10° N
Cosmos 1869 3.7 07:08:13 10° NNW 07:12:15 70° W 07:16:19 10° S
Cosmos 2278 Rocket 2.5 07:12:13 10° NNW 07:17:52 73° WSW 07:23:35 10° SSE
Nimbus 7 Rocket 4.4 07:13:06 10° NNE 07:19:05 86° ESE 07:25:06 10° SSW
Cosmos 2266 Rocket 4.3 07:13:25 10° SSW 07:19:30 69° W 07:25:36 10° N
CZ-4B DEB 3.3 07:16:54 10° SSE 07:19:58 37° E 07:22:43 12° NNE
Cosmos 2251 Rocket 4.4 07:16:36 10° S 07:21:32 34° ESE 07:25:06 17° ENE
Cosmos 1733 Rocket 3.0 07:17:49 10° S 07:22:13 70° E 07:26:35 10° NNE
Spot 2 Rocket 3.6 07:18:01 10° SSE 07:23:13 86° WSW 07:28:19 10° NNW
deb Chang Zheng 4 3.7 07:28:00 16° NNE 07:31:26 61° ESE 07:35:47 10° S
S3M 4.2 07:26:06 10° NNE 07:31:58 48° E 07:37:52 10° SSE
ALOS 3.3 07:28:24 10° S 07:32:59 50° WSW 07:37:31 10° NNW
Cosmos 1315 Rocket 3.5 07:30:08 10° S 07:34:03 38° ESE 07:36:06 23° NE
Cosmos 1862 Rocket 3.8 07:30:51 10° NNW 07:35:10 69° W 07:39:34 10° S
Okean 1-7 4.2 07:34:38 21° ENE 07:35:50 24° E 07:39:21 10° SE
BREEZE-M DEB (TANK) 4.3 07:29:30 10° WSW 07:36:23 30° S 07:39:05 11° ESE
FENGYUN 3A 4.3 07:31:53 10° S 07:37:12 58° WSW 07:42:27 10° NNW
Envisat 3.6 07:32:57 10° SSE 07:37:39 35° E 07:40:32 20° NNE
Cosmos 1703 Rocket 4.0 07:34:39 17° NNE 07:37:39 42° E 07:41:55 10° SSE
ERS-1 Rocket 4.1 07:35:44 10° SE 07:39:47 24° E 07:40:54 22° ENE
Cosmos 1400 Rocket 2.8 07:36:07 10° S 07:40:13 88° WNW 07:43:12 17° N
Sich 1 Rocket 3.8 07:37:42 10° S 07:42:05 53° E 07:44:30 24° NNE
Cosmos 1933 3.5 07:38:00 10° N 07:42:08 81° W 07:46:20 10° S
CZ-4B R/B 4.1 07:39:47 22° NE 07:42:52 44° ESE 07:47:54 10° S
USA 186 1.9 07:43:15 10° S 07:45:30 48° WSW 07:47:08 16° NNW
PSLV R/B 3.4 07:43:55 10° WSW 07:47:07 57° NNW 07:48:02 39° NNE
Cosmos 2082 Rocket 2.7 07:43:22 10° S 07:48:47 45° ESE 07:51:33 26° ENE
Cosmos 1833 Rocket 3.4 07:43:59 10° S 07:49:18 39° ESE 07:51:56 25° ENE
DELTA 2 R/B (1) 3.6 07:45:30 10° WSW 07:51:11 86° SSE 07:54:27 26° ENE
OAO 3 Copernicus 4.3 07:46:35 10° W 07:51:42 90° SSE 07:54:50 24° E
Cosmos 1408 3.4 07:48:12 10° SSW 07:51:54 52° W 07:54:52 15° NNW
Tiangong 2 2.9 07:51:51 10° SW 07:54:31 25° SSE 07:55:58 18° SE
Meteor 1-26 Rocket 4.1 07:50:13 13° N 07:55:13 67° E 08:00:47 10° SSE
COSMOS 2487 2.5 07:53:02 10° S 07:56:40 67° ESE 07:57:36 45° NE
SJ-11-01 4.3 07:53:01 10° SSE 07:57:43 59° E 08:00:25 24° N
Cosmos 1553 Rocket 4.0 07:54:28 10° N 08:00:53 88° E 08:07:25 10° S
Cosmos 2297 4.1 07:55:31 10° NNW 08:01:14 68° WSW 08:07:01 10° SSE
Cosmos 1825 4.0 08:07:21 10° SSW 08:10:44 30° W 08:13:42 12° NNW
USA 81 4.3 08:11:36 13° NNW 08:16:14 67° W 08:21:33 10° S
Abrixas rocket 3.7 08:19:21 10° NW 08:21:09 29° NW 08:21:09 29° NW
Cosmos 494 Rocket 4.2 08:18:47 10° SSW 08:23:57 66° WNW 08:26:01 36° N
Cosmos 1782 3.9 08:25:00 32° ESE 08:25:00 32° ESE 08:27:49 10° SSE
Meteor 2-10 Rocket 3.8 08:21:00 19° NNW 08:24:57 74° W 08:30:34 10° S
Lacrosse 4 Rocket 2.9 08:28:26 26° ESE 08:28:26 26° ESE 08:30:39 10° SE
Cosmos 921 Rocket 3.9 08:29:59 34° ESE 08:29:59 34° ESE 08:32:51 10° SSE
Cosmos 1709 Rocket 4.4 08:24:56 10° S 08:31:03 47° E 08:32:22 41° ENE
Cosmos 1371 Rocket 4.5 08:33:50 42° E 08:33:50 42° E 08:38:22 10° SSE
Cosmos 1606 4.3 08:35:44 25° SE 08:35:44 25° SE 08:37:49 10° SSE
ASTRO E2 3.8 08:32:43 10° W 08:35:24 34° NW 08:35:24 34° NW
NOSS 3-4 (A) 4.3 08:31:52 10° SW 08:38:27 46° WNW 08:41:23 29° NNW
NOSS 3-4 (C) 4.3 08:31:56 10° SW 08:38:32 46° WNW 08:41:27 29° NNW
Meteor 1-25 Rocket 4.2 08:35:21 10° S 08:41:12 76° E 08:42:22 57° NNE
MetOp-A 4.1 08:36:47 10° SSE 08:42:08 58° E 08:42:23 58° ENE
Cosmos 1782 Rocket 4.1 08:39:42 10° SSW 08:44:03 53° W 08:44:49 47° NW
Cosmos 1745 Rocket 4.5 08:39:47 10° SSW 08:45:53 57° W 08:49:00 29° NNW
YAOGAN 6 3.3 08:48:28 10° S 08:51:55 54° WSW 08:51:55 54° WSW
USA 245 4.4 08:47:04 10° SSE 08:53:04 56° E 08:53:04 56° E
Cosmos 2315 Rocket 3.9 08:54:22 53° N 08:55:58 86° E 09:02:18 10° S
Cosmos 1943 Rocket 4.2 09:01:09 15° ESE 09:01:09 15° ESE 09:02:34 10° SE
SPOT 5 2.9 08:55:46 10° SSE 09:00:26 74° SE 09:00:26 74° SE
ATLAS CENTAUR R/B 2.1 08:59:38 10° SSW 09:03:53 56° SSE 09:03:53 56° SSE
Cosmos 2292 Rocket 4.0 08:59:09 10° S 09:05:31 81° W 09:05:47 77° NW
CZ-2C R/B 4.1 09:06:16 24° ESE 09:06:16 24° ESE 09:09:58 10° SSE
Okean 2 Rocket 4.1 09:03:18 10° SSW 09:07:31 39° W 09:07:49 38° WNW
NOSS 2-2 (E) 4.0 09:01:17 10° SSW 09:07:45 78° ESE 09:07:50 77° ESE
Meteor 2-6 Rocket 4.1 09:07:47 75° NNW 09:08:17 86° W 09:14:07 10° S
Meteor 1-11 Rocket 4.3 09:04:28 10° S 09:09:30 45° ESE 09:09:30 45° ESE
Meteor 1-10 Rocket 4.5 09:11:32 54° NW 09:12:45 69° W 09:18:43 10° S
Lacrosse 5 rocket 3.4 09:18:45 24° SE 09:18:45 24° SE 09:20:40 10° SE
ERS-1 Rocket 4.5 09:14:01 10° S 09:18:33 33° WSW 09:20:54 22° WNW
Cosmos 2151 Rocket 4.3 09:14:22 10° SSW 09:17:56 52° SW 09:17:56 52° SW
NOSS 2-2 (D) 4.1 09:13:47 10° SSW 09:20:07 83° S 09:20:07 83° S
RESURS DK-1 3.7 09:18:05 10° SSW 09:20:51 39° SW 09:20:51 39° SW
Cosmos 2184 Rocket 4.3 09:19:39 10° S 09:25:26 52° ESE 09:25:26 52° ESE
Cosmos 2369 Rocket 2.3 09:31:32 71° S 09:31:32 71° S 09:36:36 10° SSE
Cosmos 2082 Rocket 4.0 09:28:22 10° SW 09:32:28 21° W 09:33:25 20° WNW
Cosmos 1833 Rocket 4.3 09:28:27 10° SW 09:32:56 24° W 09:33:39 24° WNW
H-2A R/B 2.8 09:29:01 10° SSE 09:32:28 42° SSE 09:32:28 42° SSE
NOSS 2-2 (C) 4.5 09:30:40 10° SW 09:36:23 61° WSW 09:36:23 61° WSW
ATLAS 3B CENTAUR R/B 4.0 09:30:13 10° W 09:38:58 29° NW 09:38:58 29° NW
SL-08 ROCKET BODY 4.5 09:36:22 10° S 09:41:35 69° SSE 09:41:35 69° SSE
H-2A R/B 3.6 09:39:15 10° S 09:41:39 32° S 09:41:39 32° S
ARGOS 3.7 09:38:49 10° S 09:44:06 54° WSW 09:44:07 54° WSW
Terra 3.3 09:46:10 10° SSE 09:48:43 31° SSE 09:48:43 31° SSE
Cosmos 2056 Rocket 4.4 09:51:11 45° WSW 09:51:15 45° WSW 09:56:31 10° S
Cosmos 2074 Rocket 4.1 09:55:03 10° S 10:00:45 69° SW 10:00:45 69° SW
Lacrosse 4 Rocket 4.0 10:04:41 16° WSW 10:05:28 17° SW 10:08:21 10° SSW
MOS 1-B Rocket 4.4 10:13:09 10° SSE 10:17:33 56° S 10:17:33 56° S
ATLAS 5 CENTAUR R/B 4.4 10:29:52 18° ESE 10:29:52 18° ESE 10:31:41 10° SE
CZ-4C R/B 4.5 10:39:27 21° ESE 10:39:27 21° ESE 10:42:27 10° ESE
Cosmos 1943 Rocket 3.3 10:42:38 40° SW 10:42:38 40° SW 10:47:06 10° S
CZ-2C R/B 4.3 10:47:48 27° WSW 10:47:48 27° WSW 10:50:43 10° SSW
Lacrosse 5 rocket 4.3 10:54:22 13° SW 10:55:52 15° SSW 10:58:39 10° S
USA 215 3.7 10:55:42 10° SE 11:02:06 55° SW 11:02:37 53° WSW
Cosmos 2227 Rocket 4.4 11:02:40 10° SSE 11:06:18 17° SE 11:06:48 17° ESE
